Aeroporto :
LOGIN :

Iscrizione | Disclaimer

   EN    FR    IT 

 










Sommario :    VFR   VFR Marginale   IFR   IFR Intensivo   IFR Molto Intensivo
Visibilità : 
Base nubi : 
>= 8 km
>= 3000ft
5 / 8 km
1000 / 3000 ft
1500m / 5 km
500 / 1000 ft
800 / 1500m
200 / 500 ft
< 800m
< 200 ft
Simboli :   Temporali  Nebbia  Neve Forte  Precipitazioni Forti  Vento > 20 kt
SIGMETs :   Varie  Temporali  Ghiacco  Turbolenza  Onda orograficha  Ceneri Vulcaniche






- Altitudine del aeroporto : 1020 ft
- Codice IATA : ILZ


LZZI - Žilina

ULTIMO METAR :
  • 181300Z 04006KT 330V090 CAVOK 19/05 Q1026

METARs OBSOLETI :
  • 181230Z 02006KT 330V060 CAVOK 19/04 Q1026
  • 181200Z 03007KT 350V070 CAVOK 19/05 Q1026
  • 181130Z 06008KT 030V100 CAVOK 19/03 Q1026
  • 181100Z 05008KT 350V090 CAVOK 18/02 Q1027
  • 181030Z 05007KT 010V120 CAVOK 18/03 Q1027

TAF TAF LZZI
Valido dal 18 a 12 ore il 18 a 21 ore UTC


181100Z 1812/1821 05007KT CAVOK
TEMPO 1812/1821 9999 SCT030



MetMap, La meteo Aeronautica in un colpo d'occhio ! - Copyright ORBIFLY Dicembre 2007 - Disclaimer

ORBIFLY MET'MAP TEAM :

Programmazione e sviluppo : Alexandra Zaïnal
Concezione : Baudouin d'Aumeries
Aiuto per la programmazione : Marc-Olivier Méhu
Supporto tecnico e logistico : Manuel Goepfert
Aiuto per la traduzione : Arnaldo La Scala

Contatto : metmap@orbifly.com




FONTI E CREDITI :

   NOAA